Location: Oak Glen
(34.0495°N, 116.9470°E)
Time: 21:46:07
(UTC-08:00)

Vanguard 1 - Pass Details

Date: 26 June 2018
Orbit: 649 x 3834 km, 34.3° (Epoch: 18 November)

Event Time Altitude Azimuth Distance (km) Brightness Sun altitude
Rises 17:45:26 0° 281° (W) 5,106 13.3 43.3°
Reaches altitude 10° 17:48:09 10° 280° (W) 4,432 13.1 43.8°
Maximum altitude 18:01:38 82° 196° (SSW) 2,980 13.3 46.6°
Drops below altitude 10° 18:24:19 10° 112° (ESE) 6,909 15.2 51.3°
Sets 18:29:52 0° 112° (ESE) 7,967 15.3 52.5°
